Location: Montreal
(45.5000°N, 73.5833°W)
Time: 21:39:41
(UTC-04:00)

Envisat - Pass Details

Date: 11 October 2017
Orbit: 764 x 766 km, 98.2° (Epoch: 18 October)

Event Time Altitude Azimuth Distance (km) Brightness Sun altitude
Exits shadow 18:50:30 - 86° (E) 2,443 4.9 -6.9°
Reaches altitude 10° 18:51:17 10° 78° (ENE) 2,306 4.8 -7.1°
Maximum altitude 18:53:11 12° 56° (NE) 2,163 4.8 -7.4°
Drops below altitude 10° 18:55:05 10° 33° (NNE) 2,311 5.1 -7.7°
Sets 18:58:53 0° 5° (N) 3,243 6.2 -8.4°
